Location: Avebury
(53.1487°N, 106.9774°W)
Time: 13:37:18
(UTC+00:00)

Envisat - Pass Details

Date: 19 January 2022
Orbit: 764 x 765 km, 98.2° (Epoch: 22 May)

Event Time Altitude Azimuth Distance (km) Brightness Sun altitude
Rises 23:54:30 0° 194° (SSW) 3,220 6.9 -4.4°
Reaches altitude 10° 23:57:03 10° 205° (SSW) 2,298 6.4 -4.8°
Maximum altitude 00:01:30 31° 266° (W) 1,337 5.1 -5.4°
Drops below altitude 10° 00:06:00 10° 328° (NNW) 2,313 5.6 -6.0°
Sets 00:08:35 0° 339° (NNW) 3,244 6.2 -6.3°
